Location: Newark
(9.4667°S, 159.8167°E)
Time: 04:15:54
(UTC+00:00)

Vanguard 1 - Pass Details

Date: 21 November 2019
Orbit: 651 x 3832 km, 34.3° (Epoch: 11 December)

Event Time Altitude Azimuth Distance (km) Brightness Sun altitude
Rises 11:30:36 0° 257° (WSW) 4,765 14.0 -52.3°
Reaches altitude 10° 11:33:50 10° 246° (WSW) 4,169 13.6 -52.8°
Maximum altitude 11:44:12 31° 187° (S) 3,844 13.1 -54.3°
Drops below altitude 10° 12:00:36 10° 132° (SE) 6,545 14.3 -56.4°
Sets 12:07:39 0° 122° (ESE) 7,857 14.7 -57.2°
